Regional Weather Roundup
Issued by NWS Midland/Odessa, TX

Skip options and go directly to product.
Home | Oldest Version | Previous Version | Current Version | All | Graphics & Text | Save Text | Print | Product List | Glossary On

Skip product version selection by date and time.   
287
ASUS44 KMAF 232010
RWRMAF
MIDLAND AREA WEATHER ROUNDUP
NATIONAL WEATHER SERVICE MIDLAND TX
300 PM CDT WED JUL 23 2014

...IN SOUTHWEST TEXAS AND SOUTHEAST NEW MEXICO...

CITY           SKY/WX    TMP DP  RH WIND       PRES   REMARKS
ALPINE         MOSUNNY   87  52  29 E10G18    30.33F
ANDREWS        FAIR      96  53  23 E7G25     30.20F
ARTESIA        MOSUNNY   93  54  26 E9        30.23F
BIG SPRING     SUNNY    100  54  21 NE6G21    30.18F
CARLSBAD       MOSUNNY   98  46  17 SE14G24   30.19F
DRYDEN           N/A    100  59  25 E12G20    30.10F HX 100
FORT STOCKTON  SUNNY     94  56  27 E13       30.18F
GUAD PASS      MOSUNNY   85  47  26 E26G32    30.36F
HOBBS          MOSUNNY   93  50  22 SE9G18    30.25F
MARFA          PTSUNNY   88  52  29 E12G21    30.32F
MIDLAND AIRPK  SUNNY     96  54  23 E7        30.18F
MIDLAND INTL   SUNNY     96  56  26 E8        30.17F
ODESSA         SUNNY     95  53  24 MISG      30.19F
PECOS          SUNNY     97  55  24 SE10G20   30.15F
PRESIDIO       FAIR      98  51  20 NE8G23    30.11F
SEMINOLE       MOSUNNY   93  53  25 E6        30.23F
SNYDER         SUNNY     96  58  28 E9G16     30.16F
WINK           MOSUNNY   98  53  22 E7        30.15F
$$
...OTHER STATIONS IN TEXAS...

CITY           SKY/WX    TMP DP  RH WIND       PRES   REMARKS
ABILENE        SUNNY     96  59  29 E10       30.13F
AMARILLO       SUNNY     91  57  31 S6        30.27F
AUSTIN         MOSUNNY   95  71  45 NE10      30.03F HX 102
BROWNSVILLE    MOSUNNY   95  73  48 SE13G24   29.99F HX 104
CORPUS CHRISTI PTSUNNY   95  72  47 E10       30.00F HX 103
DALLAS FTW     MOSUNNY   95  68  41 NE10      30.06F
DEL RIO        SUNNY     99  63  30 SE9       30.03F HX 101
EL PASO        MOSUNNY   93  49  22 E14G25    30.21F
HOUSTON INT    MOSUNNY   92  71  50 CALM      30.01F
LUBBOCK        MOSUNNY   94  59  31 E9        30.23F
SAN ANGELO     SUNNY     97  59  28 NE8       30.12F
SAN ANTONIO    MOSUNNY   95  71  45 E6        30.04F HX 102
WACO           SUNNY     95  65  37 E8        30.05F
WICHITA FALLS  NOT AVBL
$$
...OTHER LOCATIONS IN NEW MEXICO...

CITY           SKY/WX    TMP DP  RH WIND       PRES   REMARKS
ALAMAGORDO     PTSUNNY   93  46  20 E14       30.23F
ALBUQUERQUE    PTSUNNY   84  54  35 S6        30.34F
CANNON AFB     SUNNY     89  57  33 VRB5      30.31F
CLOVIS         SUNNY     88  57  35 SE7       30.33F
HOLLOMAN AFB   MOSUNNY   95  48  20 VRB7      30.21F
ROSWELL        SUNNY     94  57  28 CALM      30.23F
RUIDOSO        MOSUNNY   77  46  33 MISG      30.50S
SANTA FE       CLOUDY    72  57  59 N14       30.43S
TRUTH OR CONSE PTSUNNY   89  53  29 S7        30.26F
TUCUMCARI      SUNNY     93  58  30 CALM      30.26F
$$

USA.gov is the U.S. government's official web portal to all federal, state and local government web resources and services.